WZZ2819 EFTU-EPGD

Flight info

Callsign WZZ2819
Flight time 1h 15m
Altitude 38000
Route EMPOM DCT NISIX DCT PENOR N133 DOMAG T240 OGDAV
Aircraft A21N/M-SDE1E2E3FGIJ1J4RWXY/LB1

Departure

Time 2026-05-06 10:18
Airport Turku Airport (EFTU)

Arrival

Time 2026-05-06 11:33
Airport Gdańsk Lech Wałęsa Airport (EPGD)
Time Latitude Longitude Altitude Speed Heading
2026-05-06 09:58 60.51185 22.27332 167 ft 0 kts 149°
2026-05-06 10:11 60.51187 22.27329 167 ft 2 kts 149°
2026-05-06 10:11 60.51199 22.27314 167 ft 2 kts 149°
2026-05-06 10:11 60.51212 22.27298 167 ft 2 kts 149°
2026-05-06 10:11 60.51223 22.27286 167 ft 0 kts 149°
2026-05-06 10:12 60.51232 22.27270 167 ft 2 kts 112°
2026-05-06 10:12 60.51233 22.27240 167 ft 2 kts 69°
2026-05-06 10:12 60.51226 22.27219 168 ft 0 kts 32°
2026-05-06 10:12 60.51220 22.27213 168 ft 1 kts 27°
2026-05-06 10:13 60.51219 22.27212 168 ft 0 kts 27°
2026-05-06 10:14 60.51222 22.27215 168 ft 2 kts 27°
2026-05-06 10:14 60.51243 22.27238 167 ft 4 kts 28°
2026-05-06 10:15 60.51278 22.27276 167 ft 6 kts 27°
2026-05-06 10:15 60.51318 22.27320 167 ft 6 kts 35°
2026-05-06 10:15 60.51341 22.27420 165 ft 9 kts 79°
2026-05-06 10:15 60.51349 22.27590 163 ft 13 kts 85°
2026-05-06 10:16 60.51357 22.27782 163 ft 14 kts 84°
2026-05-06 10:16 60.51367 22.27985 163 ft 14 kts 84°
2026-05-06 10:16 60.51376 22.28199 161 ft 16 kts 85°
2026-05-06 10:16 60.51385 22.28412 157 ft 9 kts 84°
2026-05-06 10:17 60.51420 22.28533 154 ft 11 kts 15°
2026-05-06 10:17 60.51495 22.28495 154 ft 11 kts 304°
2026-05-06 10:17 60.51497 22.28173 157 ft 51 kts 264°
2026-05-06 10:17 60.51443 22.26953 167 ft 119 kts 265°
2026-05-06 10:18 60.51353 22.24956 341 ft 155 kts 267°
2026-05-06 10:18 60.51260 22.22774 954 ft 159 kts 268°
2026-05-06 10:18 60.51177 22.20562 1543 ft 161 kts 269°
2026-05-06 10:18 60.51110 22.18252 1969 ft 173 kts 267°
2026-05-06 10:19 60.50983 22.15743 2328 ft 189 kts 264°
2026-05-06 10:19 60.50425 22.13187 2658 ft 213 kts 230°
2026-05-06 10:19 60.49196 22.11256 2978 ft 237 kts 216°
2026-05-06 10:19 60.47756 22.09377 3406 ft 256 kts 215°
2026-05-06 10:20 60.46258 22.07388 4081 ft 264 kts 216°
2026-05-06 10:20 60.44742 22.05292 4965 ft 265 kts 217°
2026-05-06 10:20 60.43248 22.03166 5841 ft 267 kts 218°
2026-05-06 10:20 60.41745 22.00985 6692 ft 269 kts 218°
2026-05-06 10:21 60.40242 21.98783 7526 ft 272 kts 218°
2026-05-06 10:21 60.38731 21.96559 8343 ft 274 kts 219°
2026-05-06 10:21 60.37194 21.94292 9189 ft 276 kts 219°
2026-05-06 10:21 60.35652 21.92015 9979 ft 279 kts 219°
2026-05-06 10:22 60.34071 21.89677 10647 ft 286 kts 219°
2026-05-06 10:22 60.32432 21.87254 11130 ft 298 kts 220°
2026-05-06 10:22 60.30764 21.84800 11865 ft 301 kts 220°
2026-05-06 10:22 60.29076 21.82321 12653 ft 302 kts 221°
2026-05-06 10:23 60.27391 21.79850 13415 ft 302 kts 221°
2026-05-06 10:23 60.25697 21.77364 14136 ft 303 kts 221°
2026-05-06 10:23 60.24002 21.74878 14841 ft 304 kts 222°
2026-05-06 10:23 60.22317 21.72408 15561 ft 304 kts 222°
2026-05-06 10:24 60.20609 21.69903 16263 ft 304 kts 223°
2026-05-06 10:24 60.18912 21.67397 16914 ft 305 kts 223°
2026-05-06 10:24 60.17216 21.64894 17542 ft 306 kts 223°
2026-05-06 10:24 60.15512 21.62384 18172 ft 306 kts 223°
2026-05-06 10:25 60.13807 21.59876 18779 ft 306 kts 223°
2026-05-06 10:25 60.12089 21.57352 19362 ft 307 kts 223°
2026-05-06 10:25 60.10371 21.54836 19934 ft 308 kts 223°
2026-05-06 10:25 60.08658 21.52327 20487 ft 309 kts 223°
2026-05-06 10:26 60.03442 21.44705 22041 ft 312 kts 223°
2026-05-06 10:26 60.01693 21.42159 22562 ft 312 kts 223°
2026-05-06 10:27 59.99936 21.39604 23049 ft 313 kts 224°
2026-05-06 10:27 59.98184 21.37057 23484 ft 315 kts 223°
2026-05-06 10:27 59.96410 21.34481 23911 ft 317 kts 223°
2026-05-06 10:27 59.94610 21.31877 24358 ft 319 kts 223°
2026-05-06 10:28 59.92830 21.29301 24793 ft 320 kts 223°
2026-05-06 10:28 59.91037 21.26713 25230 ft 322 kts 223°
2026-05-06 10:28 59.89212 21.24078 25693 ft 322 kts 223°
2026-05-06 10:28 59.87407 21.21476 26170 ft 322 kts 223°
2026-05-06 10:29 59.85603 21.18883 26603 ft 323 kts 223°
2026-05-06 10:29 59.83779 21.16264 27021 ft 325 kts 223°
2026-05-06 10:29 59.81943 21.13629 27458 ft 325 kts 223°
2026-05-06 10:29 59.80135 21.11035 27898 ft 325 kts 222°
2026-05-06 10:30 59.78292 21.08401 28311 ft 326 kts 223°
2026-05-06 10:30 59.76473 21.05800 28706 ft 327 kts 223°
2026-05-06 10:30 59.74635 21.03180 29099 ft 328 kts 223°
2026-05-06 10:30 59.72775 21.00531 29474 ft 329 kts 223°
2026-05-06 10:31 59.70916 20.97880 29873 ft 329 kts 222°
2026-05-06 10:31 59.69062 20.95250 30249 ft 330 kts 223°
2026-05-06 10:31 59.67217 20.92634 30573 ft 332 kts 222°
2026-05-06 10:31 59.65340 20.89970 30943 ft 332 kts 222°
2026-05-06 10:32 59.63447 20.87291 31239 ft 335 kts 222°
2026-05-06 10:32 59.61567 20.84635 31501 ft 338 kts 222°
2026-05-06 10:32 59.59642 20.81916 31791 ft 340 kts 222°
2026-05-06 10:32 59.57742 20.79238 32064 ft 342 kts 222°
2026-05-06 10:33 59.55794 20.76496 32333 ft 344 kts 222°
2026-05-06 10:33 59.53862 20.73781 32586 ft 347 kts 221°
2026-05-06 10:33 59.51887 20.71013 32847 ft 349 kts 221°
2026-05-06 10:33 59.49915 20.68248 33111 ft 351 kts 221°
2026-05-06 10:34 59.47917 20.65459 33369 ft 353 kts 222°
2026-05-06 10:34 59.45924 20.62674 33597 ft 355 kts 221°
2026-05-06 10:34 59.43910 20.59868 33891 ft 355 kts 221°
2026-05-06 10:34 59.41892 20.57064 34221 ft 355 kts 221°
2026-05-06 10:35 59.39872 20.54259 34555 ft 354 kts 221°
2026-05-06 10:35 59.37870 20.51481 34850 ft 354 kts 221°
2026-05-06 10:35 59.35869 20.48707 35116 ft 353 kts 221°
2026-05-06 10:35 59.33882 20.46005 35318 ft 355 kts 220°
2026-05-06 10:36 59.31782 20.43410 35475 ft 358 kts 218°
2026-05-06 10:36 59.29610 20.41005 35627 ft 361 kts 215°
2026-05-06 10:36 59.27361 20.38768 35796 ft 363 kts 214°
2026-05-06 10:36 59.25149 20.36568 35980 ft 362 kts 214°
2026-05-06 10:37 59.22892 20.34310 36147 ft 363 kts 213°
2026-05-06 10:37 59.20640 20.32072 36279 ft 365 kts 213°
2026-05-06 10:37 59.18370 20.29816 36403 ft 368 kts 213°
2026-05-06 10:37 59.16090 20.27560 36542 ft 369 kts 213°
2026-05-06 10:38 59.13822 20.25322 36675 ft 371 kts 213°
2026-05-06 10:38 59.11519 20.23053 36762 ft 373 kts 213°
2026-05-06 10:38 59.09211 20.20784 36872 ft 375 kts 212°
2026-05-06 10:38 59.06887 20.18504 36997 ft 376 kts 212°
2026-05-06 10:39 59.04539 20.16205 36831 ft 377 kts 212°
2026-05-06 10:39 59.02219 20.13937 36934 ft 380 kts 212°
2026-05-06 10:39 58.99842 20.11617 37042 ft 382 kts 212°
2026-05-06 10:39 58.97465 20.09309 37164 ft 383 kts 212°
2026-05-06 10:40 58.95089 20.06995 37287 ft 385 kts 212°
2026-05-06 10:40 58.92697 20.04674 37419 ft 386 kts 212°
2026-05-06 10:40 58.90290 20.02338 37540 ft 388 kts 212°
2026-05-06 10:40 58.87884 20.00013 37668 ft 389 kts 212°
2026-05-06 10:41 58.83045 19.95342 37868 ft 393 kts 212°
2026-05-06 10:41 58.80574 19.92961 37979 ft 395 kts 211°
2026-05-06 10:41 58.78114 19.90593 38005 ft 397 kts 211°
2026-05-06 10:42 58.73184 19.85867 38014 ft 397 kts 211°
2026-05-06 10:42 58.68274 19.81175 38003 ft 397 kts 211°
2026-05-06 10:43 58.63320 19.76455 38020 ft 397 kts 211°
2026-05-06 10:44 58.55939 19.69445 38031 ft 397 kts 211°
2026-05-06 10:44 58.51000 19.64776 38007 ft 397 kts 211°
2026-05-06 10:45 58.46064 19.60119 38018 ft 396 kts 211°
2026-05-06 10:45 58.41150 19.55501 38015 ft 396 kts 211°
2026-05-06 10:46 58.36225 19.50889 37993 ft 395 kts 211°
2026-05-06 10:46 58.31303 19.46291 38013 ft 395 kts 211°
2026-05-06 10:47 58.26382 19.41707 38015 ft 394 kts 211°
2026-05-06 10:47 58.21495 19.37170 38019 ft 393 kts 211°
2026-05-06 10:48 58.16564 19.32610 38020 ft 393 kts 210°
2026-05-06 10:48 58.11679 19.28103 38013 ft 394 kts 210°
2026-05-06 10:49 58.06747 19.23569 38014 ft 395 kts 210°
2026-05-06 10:49 58.01837 19.19066 38006 ft 394 kts 210°
2026-05-06 10:50 57.96924 19.14577 38003 ft 394 kts 210°
2026-05-06 10:50 57.92013 19.10098 37996 ft 395 kts 210°
2026-05-06 10:51 57.87093 19.05628 37996 ft 394 kts 210°
2026-05-06 10:51 57.82174 19.01177 37991 ft 394 kts 210°
2026-05-06 10:52 57.77250 18.96727 37987 ft 394 kts 210°
2026-05-06 10:52 57.72304 18.92273 37988 ft 394 kts 210°
2026-05-06 10:53 57.67392 18.87868 37981 ft 394 kts 210°
2026-05-06 10:53 57.62455 18.83451 37983 ft 395 kts 210°
2026-05-06 10:54 57.57532 18.79058 37979 ft 395 kts 209°
2026-05-06 10:54 57.52596 18.74670 37974 ft 395 kts 209°
2026-05-06 10:55 57.47648 18.70280 37974 ft 396 kts 209°
2026-05-06 10:55 57.42698 18.65906 37975 ft 395 kts 209°
2026-05-06 10:56 57.37728 18.61525 37967 ft 396 kts 209°
2026-05-06 10:56 57.32761 18.57162 37964 ft 396 kts 209°
2026-05-06 10:57 57.27781 18.52801 37971 ft 397 kts 208°
2026-05-06 10:57 57.22821 18.48466 37966 ft 396 kts 208°
2026-05-06 10:58 57.17861 18.44145 37965 ft 396 kts 208°
2026-05-06 10:58 57.12895 18.39836 37963 ft 396 kts 208°
2026-05-06 10:59 57.07899 18.35510 37963 ft 397 kts 208°
2026-05-06 10:59 57.02913 18.31208 37965 ft 398 kts 208°
2026-05-06 11:00 56.97918 18.26912 37960 ft 398 kts 207°
2026-05-06 11:00 56.92919 18.22621 37960 ft 398 kts 207°
2026-05-06 11:01 56.87999 18.18413 37959 ft 400 kts 207°
2026-05-06 11:01 56.82981 18.14133 37963 ft 400 kts 207°
2026-05-06 11:02 56.77965 18.09865 37959 ft 399 kts 207°
2026-05-06 11:02 56.72927 18.05596 37951 ft 400 kts 207°
2026-05-06 11:03 56.67914 18.01359 37943 ft 400 kts 207°
2026-05-06 11:03 56.62865 17.97105 37940 ft 400 kts 207°
2026-05-06 11:04 56.57842 17.92883 37932 ft 400 kts 207°
2026-05-06 11:04 56.52824 17.88680 37932 ft 401 kts 207°
2026-05-06 11:05 56.47775 17.84460 37928 ft 401 kts 207°
2026-05-06 11:05 56.42710 17.80243 37932 ft 401 kts 207°
2026-05-06 11:06 56.37665 17.76054 37930 ft 402 kts 207°
2026-05-06 11:06 56.32606 17.71863 37930 ft 402 kts 207°
2026-05-06 11:07 56.27501 17.67646 37925 ft 402 kts 206°
2026-05-06 11:07 56.22443 17.63485 37924 ft 403 kts 206°
2026-05-06 11:08 56.17353 17.59307 37878 ft 404 kts 206°
2026-05-06 11:08 56.14803 17.57215 37491 ft 403 kts 206°
2026-05-06 11:08 56.12291 17.55160 37023 ft 400 kts 206°
2026-05-06 11:08 56.09765 17.53094 36546 ft 398 kts 205°
2026-05-06 11:09 56.07259 17.51047 36135 ft 399 kts 205°
2026-05-06 11:09 56.04727 17.48982 35615 ft 402 kts 205°
2026-05-06 11:09 56.02193 17.46921 34982 ft 404 kts 204°
2026-05-06 11:09 55.99656 17.44865 34219 ft 404 kts 204°
2026-05-06 11:10 55.97104 17.42800 33563 ft 402 kts 204°
2026-05-06 11:10 55.94565 17.40751 32884 ft 400 kts 204°
2026-05-06 11:10 55.92068 17.38735 32246 ft 397 kts 204°
2026-05-06 11:10 55.89549 17.36702 31602 ft 394 kts 204°
2026-05-06 11:11 55.87091 17.34720 30966 ft 392 kts 204°
2026-05-06 11:11 55.84620 17.32730 30494 ft 386 kts 203°
2026-05-06 11:11 55.82229 17.30810 30107 ft 380 kts 204°
2026-05-06 11:11 55.79796 17.28857 29704 ft 378 kts 204°
2026-05-06 11:12 55.77513 17.27027 29323 ft 376 kts 204°
2026-05-06 11:12 55.75151 17.25138 28924 ft 373 kts 203°
2026-05-06 11:12 55.72786 17.23249 28528 ft 372 kts 203°
2026-05-06 11:12 55.70436 17.21372 28127 ft 369 kts 204°
2026-05-06 11:13 55.68110 17.19528 27735 ft 366 kts 202°
2026-05-06 11:13 55.65681 17.18335 27324 ft 364 kts 187°
2026-05-06 11:13 55.63149 17.18440 26933 ft 366 kts 172°
2026-05-06 11:13 55.60726 17.19779 26539 ft 369 kts 157°
2026-05-06 11:14 55.58507 17.22061 26183 ft 370 kts 152°
2026-05-06 11:14 55.56338 17.24451 25834 ft 368 kts 152°
2026-05-06 11:14 55.54195 17.26820 25486 ft 366 kts 152°
2026-05-06 11:14 55.52047 17.29188 25149 ft 364 kts 152°
2026-05-06 11:15 55.49923 17.31529 24818 ft 363 kts 152°
2026-05-06 11:15 55.47797 17.33866 24475 ft 361 kts 152°
2026-05-06 11:15 55.45673 17.36200 24139 ft 359 kts 152°
2026-05-06 11:15 55.43568 17.38506 23805 ft 358 kts 152°
2026-05-06 11:16 55.41463 17.40812 23464 ft 356 kts 152°
2026-05-06 11:16 55.39365 17.43108 23130 ft 354 kts 152°
2026-05-06 11:16 55.37286 17.45381 22789 ft 353 kts 151°
2026-05-06 11:16 55.35238 17.47619 22457 ft 351 kts 152°
2026-05-06 11:17 55.33168 17.49875 22124 ft 348 kts 152°
2026-05-06 11:17 55.31118 17.52109 21785 ft 346 kts 152°
2026-05-06 11:17 55.29073 17.54333 21404 ft 344 kts 152°
2026-05-06 11:17 55.27049 17.56532 20994 ft 342 kts 151°
2026-05-06 11:18 55.25052 17.58700 20567 ft 340 kts 151°
2026-05-06 11:18 55.23044 17.60877 20112 ft 339 kts 151°
2026-05-06 11:18 55.21078 17.63007 19683 ft 337 kts 152°
2026-05-06 11:18 55.19080 17.65170 19248 ft 334 kts 152°
2026-05-06 11:19 55.17134 17.67272 18832 ft 332 kts 152°
2026-05-06 11:19 55.15179 17.69382 18404 ft 330 kts 152°
2026-05-06 11:19 55.13240 17.71472 17965 ft 328 kts 152°
2026-05-06 11:19 55.11288 17.73571 17489 ft 328 kts 152°
2026-05-06 11:20 55.09371 17.75633 17045 ft 326 kts 153°
2026-05-06 11:20 55.07435 17.77713 16606 ft 324 kts 153°
2026-05-06 11:20 55.05535 17.79752 16179 ft 322 kts 152°
2026-05-06 11:20 55.03647 17.81776 15754 ft 319 kts 153°
2026-05-06 11:21 55.01746 17.83810 15362 ft 316 kts 152°
2026-05-06 11:21 54.99898 17.85787 14937 ft 314 kts 152°
2026-05-06 11:21 54.98046 17.87767 14533 ft 312 kts 153°
2026-05-06 11:21 54.96201 17.89735 14134 ft 309 kts 153°
2026-05-06 11:22 54.94380 17.91673 13701 ft 307 kts 153°
2026-05-06 11:22 54.92579 17.93588 13305 ft 305 kts 152°
2026-05-06 11:22 54.90766 17.95515 12891 ft 303 kts 152°
2026-05-06 11:22 54.88985 17.97405 12470 ft 302 kts 152°
2026-05-06 11:23 54.87215 17.99282 12054 ft 300 kts 152°
2026-05-06 11:23 54.85420 18.01184 11611 ft 299 kts 152°
2026-05-06 11:23 54.83648 18.03059 11187 ft 298 kts 151°
2026-05-06 11:23 54.81901 18.04905 10772 ft 297 kts 150°
2026-05-06 11:24 54.80142 18.06764 10360 ft 295 kts 150°
2026-05-06 11:24 54.78389 18.08615 9992 ft 291 kts 150°
2026-05-06 11:24 54.76718 18.10385 9845 ft 279 kts 150°
2026-05-06 11:24 54.75082 18.12114 9573 ft 273 kts 151°
2026-05-06 11:25 54.73461 18.13816 9185 ft 271 kts 150°
2026-05-06 11:25 54.71876 18.15481 8832 ft 268 kts 150°
2026-05-06 11:25 54.70287 18.17100 8439 ft 267 kts 154°
2026-05-06 11:25 54.68491 18.17788 7951 ft 267 kts 179°
2026-05-06 11:26 54.66639 18.17600 7457 ft 269 kts 182°
2026-05-06 11:26 54.64759 18.17337 7014 ft 269 kts 181°
2026-05-06 11:26 54.62911 18.17132 6622 ft 266 kts 180°
2026-05-06 11:26 54.61085 18.16978 6230 ft 260 kts 178°
2026-05-06 11:27 54.59304 18.16865 5844 ft 252 kts 178°
2026-05-06 11:27 54.57583 18.16781 5508 ft 245 kts 178°
2026-05-06 11:27 54.55885 18.16707 5214 ft 245 kts 178°
2026-05-06 11:27 54.54202 18.16636 4882 ft 244 kts 177°
2026-05-06 11:28 54.52499 18.16565 4550 ft 245 kts 177°
2026-05-06 11:28 54.50798 18.16495 4265 ft 242 kts 177°
2026-05-06 11:28 54.49133 18.16427 4007 ft 237 kts 176°
2026-05-06 11:28 54.47531 18.16360 3904 ft 226 kts 176°
2026-05-06 11:29 54.45982 18.16467 3634 ft 219 kts 160°
2026-05-06 11:29 54.44795 18.17844 3427 ft 208 kts 122°
2026-05-06 11:29 54.44209 18.20102 3192 ft 203 kts 108°
2026-05-06 11:29 54.43702 18.22337 2952 ft 199 kts 109°
2026-05-06 11:30 54.43178 18.24501 2692 ft 196 kts 109°
2026-05-06 11:30 54.42662 18.26610 2527 ft 187 kts 109°
2026-05-06 11:30 54.42180 18.28568 2522 ft 167 kts 108°
2026-05-06 11:30 54.41756 18.30283 2489 ft 147 kts 108°
2026-05-06 11:31 54.41371 18.31851 2292 ft 140 kts 107°
2026-05-06 11:31 54.40994 18.33392 2084 ft 138 kts 106°
2026-05-06 11:31 54.40635 18.34863 1885 ft 137 kts 106°
2026-05-06 11:31 54.40268 18.36356 1676 ft 136 kts 105°
2026-05-06 11:32 54.39906 18.37848 1461 ft 135 kts 104°
2026-05-06 11:32 54.39555 18.39354 1239 ft 135 kts 106°
2026-05-06 11:32 54.39162 18.40807 971 ft 135 kts 108°
2026-05-06 11:32 54.38828 18.42284 809 ft 134 kts 106°
2026-05-06 11:33 54.38463 18.43747 655 ft 134 kts 105°
2026-05-06 11:33 54.38106 18.45234 487 ft 134 kts 107°
2026-05-06 11:33 54.37776 18.46556 447 ft 88 kts 113°
2026-05-06 11:33 54.37631 18.47144 448 ft 37 kts 107°
2026-05-06 11:34 54.37602 18.47528 452 ft 21 kts 87°
2026-05-06 11:34 54.37611 18.47675 458 ft 9 kts 76°
2026-05-06 11:34 54.37649 18.47719 459 ft 6 kts 325°
2026-05-06 11:34 54.37683 18.47636 458 ft 10 kts 299°
2026-05-06 11:35 54.37716 18.47502 453 ft 14 kts 293°
2026-05-06 11:35 54.37758 18.47341 452 ft 14 kts 294°
2026-05-06 11:35 54.37800 18.47180 451 ft 15 kts 292°
2026-05-06 11:35 54.37841 18.47003 449 ft 16 kts 292°
2026-05-06 11:36 54.37886 18.46826 449 ft 16 kts 294°
2026-05-06 11:36 54.37928 18.46650 448 ft 10 kts 291°
2026-05-06 11:36 54.37983 18.46582 448 ft 11 kts
2026-05-06 11:36 54.38021 18.46605 448 ft 0 kts 22°
2026-05-06 11:37 54.38026 18.46608 448 ft 1 kts 22°
2026-05-06 11:37 54.38047 18.46626 448 ft 5 kts 28°
2026-05-06 11:37 54.38073 18.46653 449 ft 3 kts 31°
2026-05-06 11:37 54.38090 18.46666 450 ft 2 kts 23°
2026-05-06 11:38 54.38098 18.46672 450 ft 0 kts 23°